sat.trackr.live / text

‹ back to catalog

STARLINK-2581

NORAD 48412 · 2021-038BM

PAYLOAD ACTIVE UNKNOWN

§ Identity

Operator
Country
US
Launch date
2021-05-04
Launch site
AFETR
Launch vehicle
Mass (kg)
RCS (m²)

Purposes: comms

External: N2YO · Heavens-Above · Gunter

§ Orbital elements

Epoch: 2026-09-13T01:31:07.754880Z

Period
94.01 min
Inclination
53.1581°
Eccentricity
0.0001218
Mean motion
15.31703034 rev/d
Perigee alt
469.9 km
Apogee alt
471.6 km
Semi-major
6,848.9 km
B*
1.9910e-4
RAAN
144.4717°
Arg perigee
91.7025°
Mean anomaly
268.4116°
Rev number
29,665

§ Raw data

STARLINK-25811 48412U 21038BM  26256.06328420  .00005819  00000+0  19910-3 0  99942 48412  53.1581 144.4717 0001218  91.7025 268.4116 15.31703034296651

JSON: /api/v1/satellites/48412 · /tle

For live sub-satellite position, see the globe view (requires WebGL).

§ Visibility from observer

Set your observer location to see the next 7 days of passes ≥ 10°. The values pass through the URL so the page stays shareable.

No JS? Fill the form by hand. The geolocation button needs JavaScript.